Hauptseite
METAR-TAF:

METAR-TAF

Flughäfen :

Fliegerhorst Meppen

Meppen, Deutschland

Breite: 52-43-24N, Länge: 007-19-35E, Höhe: 21 m

Beobachtung

Neuester Wetterbericht von vor 1 Stunde und 19 Minuten, um 18:20 UTC
Windstille
Temperatur 25°C
Luftfeuchtigkeit 34%
Luftdruck 1015 hPa

METAR: ETWM 051820Z AUTO 00000KT //// // ////// 25/08 Q1015 ///

Zeit: 21:39 (19:39 UTC)


TAF: fehlend

Wetterbeobachtungen und Prognosen von mehr als 4000 Flughäfen (METAR und TAF Bericht).

Die verfügbaren Stationen werden durch gelbe und rote Markierungen auf der Karte dargestellt.

Führen Sie die Maus auf sie, um den Namen der Station zu sehen.

Darauf klicken, um die Beobachtung von Wetterbeobachtungen und Prognosen zu sehen.

Um die Karte zu ändern : klicken Sie auf den grünen Tasten mit einem schwarzen Kreuz Zum Vergrößern, auf den grünen Button mit einem Gedankenstrich zu verkleinern, oder auf die grünen Pfeile für benachbarte Karten.


METAR-TAF: